Regional Weather Roundup
Issued by NWS

Home | Current Version | Previous Version | Graphics & Text | Print | Product List | Glossary On
Versions: 1 2 3 4 5 6 7 8 9 10 11 12 13 14 15 16 17 18 19 20 21 22 23 24 25 26 27 28 29 30 31 32 33 34 35 36 37 38 39 40 41 42 43 44 45 46 47 48 49 50
000
ASUS43 KIND 301009
RWRIN

WEATHER ROUNDUP FOR INDIANA
NATIONAL WEATHER SERVICE INDIANAPOLIS IN
600 AM EDT THU OCT 30 2014

NOTE: "FAIR" INDICATES FEW OR NO CLOUDS BELOW 12,000 FEET WITH NO
SIGNIFICANT WEATHER AND/OR OBSTRUCTIONS TO VISIBILITY.

* - STATION DOES NOT REPORT WEATHER SUCH AS PRECIPITATION OR FOG.

+ - STATION NOT QUALITY CONTROLLED BY THE NATIONAL WEATHER SERVICE.
    USE DATA WITH CAUTION...ESPECIALLY DEWPOINT AND RELATIVE
    HUMIDITY OBSERVATIONS.

INZ001>003-010>013-019-020-301100-
NORTHWEST INDIANA

CITY           SKY/WX    TMP DP  RH WIND       PRES   REMARKS
GARY /AIRPORT/ PTCLDY    34  32  93 SW7       30.15S WCI  28
KNOX *+        CLOUDY    42  35  74 SW3       30.14R
LA PORTE +     CLOUDY    45  37  73 CALM      30.14S
MICHIGAN CITY+ CLOUDY    43  32  65 SW3       30.14S
MONTICELLO +   CLOUDY    37  34  89 CALM      30.15S
RENSSELAER +   CLEAR     34  34 100 CALM      30.16R
VALPARAISO     CLOUDY    39  33  79 W5        30.15R

$$

LMZ046-743>745-301100-
SOUTHERN LAKE MICHIGAN

STATION/POSITION TIME  TEMP WIND        PRES
                       AIR  DIR/SP/G
                 (UTC) (F)  (DEG/KT/KT) (MB)
MICHIGAN CITY    1000   46  200/ 10/ 12   N/A

$$

INZ004-005-014>016-021>024-301100-
NORTH CENTRAL INDIANA

CITY           SKY/WX    TMP DP  RH WIND       PRES   REMARKS
GOSHEN         CLOUDY    43  37  79 SW3       30.13S
LOGANSPORT +   CLOUDY    41  36  81 SW3       30.16R
PERU/GRISSOM   CLOUDY    42  41  96 W3        30.15R
ROCHESTER +    CLOUDY    45  37  76 CALM      30.15R
SOUTH BEND     CLOUDY    44  37  76 S3        30.14S
WARSAW +       CLOUDY    41  36  81 W3        30.14R

$$

INZ006>009-017-018-025>027-301100-
NORTHEAST INDIANA

CITY           SKY/WX    TMP DP  RH WIND       PRES   REMARKS
ANGOLA *+      CLOUDY    43  39  87 CALM      30.12S
AUBURN +       CLOUDY    43  36  75 CALM      30.14R
FORT WAYNE     CLOUDY    43  36  76 W3        30.15R
HUNTINGTON +   CLOUDY   N/A N/A N/A W3        30.14S

$$

INZ028-029-035-036-043>045-051>053-301100-
WEST CENTRAL INDIANA

CITY           SKY/WX    TMP DP  RH WIND       PRES   REMARKS
GREENCASTLE +  CLEAR     32  32 100 CALM      30.16S
LAFAYETTE      CLEAR     32  31  96 CALM      30.16S FOG
TERRE HAUTE    CLEAR     33  32  96 CALM      30.17S

$$

INZ030>032-037>040-046>048-054>057-064-065-301100-
CENTRAL INDIANA

CITY           SKY/WX    TMP DP  RH WIND       PRES   REMARKS
CP ATTERBURY + CLEAR     32  32 100 CALM      30.17R
FRANKFORT +    CLEAR    N/A N/A N/A CALM      30.17R
INDIANAPOLIS   CLEAR     36  31  82 W3        30.15S
-EAGLE CREEK   CLEAR     38  33  82 NW5       30.15R
KOKOMO *+      CLOUDY    43  34  70 CALM      30.16R
MARION +       CLOUDY    42  34  75 CALM      30.16R
MT COMFORT *+  CLEAR     32 N/A N/A CALM      30.16S
SHELBYVILLE    CLEAR     35  32  88 CALM      30.15R
ZIONSVILLE +   CLEAR     34  31  90 CALM      30.16R

$$

INZ033-034-041-042-049-050-058-059-301100-
EAST CENTRAL INDIANA

CITY           SKY/WX    TMP DP  RH WIND       PRES   REMARKS
MUNCIE         CLOUDY    42  37  82 CALM      30.15R

$$

INZ060-061-067>069-081>083-085>088-301100-
SOUTHWEST INDIANA

CITY           SKY/WX    TMP DP  RH WIND       PRES   REMARKS
EVANSVILLE     CLEAR     38  34  85 CALM      30.18R
HUNTINGBURG *+ CLEAR     36  32  87 NE3       30.17S
WASHINGTON +   CLEAR     35  35 100 CALM      30.18R

$$

INZ062-063-066-070>080-084-089>092-301100-
SOUTH CENTRAL AND SOUTHEAST INDIANA

CITY           SKY/WX    TMP DP  RH WIND       PRES   REMARKS
BLOOMINGTON    CLEAR     32  31  96 CALM      30.16R

$$




USA.gov is the U.S. government's official web portal to all federal, state and local government web resources and services.